RH
67 69 69 69 69 68 66 65 68 72 75 75 73 72 70 69 68 66 62 57 53 48 45 41 38 35 34 33 33 33 32 32 32 32 32 33 33 33 33 33 33 33 32 33 32 32 32 32 32 32 32 32 32 32 32 32 33 33 33 33 33 33 33 33 33 33 33 33 33 33 32 32 32 32 32 31 31 32 32 32 32 32 32 32 32 32
65 66 67 67 67 66 65 67 71 74 76 75 73 70 69 69 68 64 59 55 50 47 43 39 36 35 34 34 34 34 33 33 33 33 33 34 34 33 33 33 33 33 33 33 33 33 33 33 33 33 33 33 33 33 33 33 33 33 33 33 33 33 33 33 34 34 34 34 34 34 33 33 33 33 33 33 32 32 32 33 33 33 33 32 32 32
62 61 61 61 62 65 69 72 74 75 75 73 71 69 69 69 66 62 57 52 49 45 41 38 36 36 35 35 35 34 34 34 34 34 34 34 34 34 34 33 33 33 33 33 33 33 32 32 32 32 32 32 32 32 32 32 32 32 32 32 33 33 33 33 34 34 34 34 34 34 34 34 34 34 34 33 33 33 33 33 33 33 33 33 33 33
59 58 57 60 65 69 74 76 76 76 75 72 70 69 70 69 65 60 55 51 47 43 39 37 37 36 36 36 36 35 35 35 36 36 36 35 35 34 34 33 33 33 33 32 32 32 31 31 31 31 30 30 30 30 30 30 30 30 30 31 31 31 32 32 33 33 33 33 34 33 33 33 33 33 33 33 33 33 33 33 33 33 33 34 34 34
57 57 59 65 71 75 76 76 75 74 72 70 69 70 70 67 63 58 53 49 45 41 38 38 37 37 37 36 36 36 37 37 37 37 36 36 35 35 34 33 33 32 32 31 31 30 29 29 28 28 28 27 27 27 27 27 27 28 28 28 29 29 29 30 30 31 31 31 31 31 31 32 32 32 32 32 32 32 32 32 32 32 33 33 33 33
56 58 62 70 74 76 76 75 74 72 69 70 70 71 70 65 60 55 51 47 43 40 39 38 38 37 37 37 37 38 38 38 38 38 37 36 35 35 34 33 32 31 30 29 28 28 27 26 25 25 24 24 24 24 24 25 25 25 25 26 26 27 27 28 28 29 29 29 29 29 29 30 30 30 30 30 30 31 31 31 31 31 31 31 32 32
57 61 66 72 75 75 75 73 71 69 68 70 71 70 68 63 58 53 49 45 42 40 39 38 38 38 38 38 39 39 39 39 39 38 37 36 35 34 32 31 30 29 28 27 26 25 24 23 23 22 22 22 22 22 23 23 23 24 24 24 25 26 26 27 27 28 28 28 28 28 28 29 29 29 29 29 29 29 29 29 29 29 29 29 29 30
60 65 70 73 73 72 71 69 68 68 70 71 71 69 65 61 56 51 47 43 42 40 40 39 39 38 39 40 40 41 40 39 38 37 35 34 33 31 30 29 28 27 26 25 24 23 23 22 21 21 21 21 22 22 22 23 23 23 24 25 25 26 27 28 28 28 29 29 29 29 29 29 29 29 29 29 29 29 29 28 27 27 27 26 27 27
64 68 70 70 69 69 68 68 68 69 72 71 70 67 62 58 53 48 44 43 42 41 41 40 40 40 40 40 41 40 39 38 36 34 33 32 30 29 28 27 26 25 25 24 24 23 23 22 22 22 22 22 22 23 23 24 24 25 25 26 26 27 28 29 29 30 30 30 31 31 31 31 31 31 30 30 30 30 29 28 27 27 26 25 25 25
64 67 68 66 66 66 68 69 69 70 71 70 68 64 59 54 50 46 43 42 41 40 40 40 40 41 41 41 40 39 37 35 33 32 31 30 29 28 27 26 26 25 25 24 24 24 23 23 23 23 23 23 24 24 25 25 26 26 26 27 27 28 29 29 30 31 31 31 32 32 32 32 32 32 32 32 31 31 30 29 28 27 26 25 25 25
62 63 64 65 65 67 68 69 70 70 70 68 65 61 56 51 47 44 43 42 41 41 40 41 41 41 41 40 38 36 34 32 31 30 29 28 27 27 26 26 26 25 25 25 25 25 24 24 24 24 25 25 25 26 26 26 26 27 27 28 28 29 29 30 31 31 32 32 32 33 33 33 33 33 33 32 32 32 31 30 29 28 27 26 25 25
58 61 63 65 67 69 69 69 69 68 67 64 61 56 51 47 45 44 43 43 42 42 42 42 42 41 40 38 36 34 32 31 30 29 28 28 27 26 26 26 26 25 25 26 26 26 26 26 26 26 26 26 26 26 27 27 27 27 27 28 28 29 30 30 31 32 32 33 33 34 34 34 34 34 34 34 33 33 32 31 30 29 27 27 26 26
58 61 64 67 69 70 69 69 67 65 63 59 55 51 47 45 44 44 44 44 44 45 44 44 43 41 39 37 35 33 31 30 29 29 28 27 27 26 26 26 26 25 26 26 27 27 27 27 27 27 27 27 27 27 27 27 27 27 28 28 29 29 30 30 31 32 32 33 34 34 34 35 35 35 35 34 34 34 33 32 31 29 28 27 27 26
59 62 66 68 69 69 68 67 66 63 59 55 51 49 47 46 46 46 46 47 47 46 46 45 43 40 38 36 34 32 31 30 29 29 28 27 27 27 26 26 26 26 26 27 27 27 27 27 27 27 27 27 27 26 26 27 27 27 28 28 29 29 30 30 31 32 32 33 34 34 35 35 35 35 35 35 35 34 34 33 31 30 29 28 28 27
61 63 66 67 67 67 66 65 62 59 55 51 49 48 48 48 49 49 49 49 48 47 46 44 42 39 37 35 33 32 31 30 30 29 28 28 27 27 27 27 27 26 27 27 27 27 27 27 27 27 26 26 26 26 26 26 27 27 27 28 28 29 29 30 31 31 32 32 33 34 34 35 35 36 36 36 35 35 34 33 32 31 30 29 29 29
62 64 66 66 66 65 63 60 57 54 51 50 50 50 51 51 51 51 51 49 48 46 44 42 40 39 37 35 34 33 32 31 31 30 29 28 28 28 27 27 27 27 27 27 27 27 27 26 26 26 26 25 25 25 26 26 26 27 28 28 28 29 29 30 30 30 31 32 33 33 34 35 35 35 36 36 36 35 34 33 33 32 31 31 30 30
64 65 65 64 63 61 57 54 52 50 49 50 50 51 52 52 52 51 49 48 46 44 42 40 39 38 37 36 34 33 33 32 31 30 30 29 29 29 28 28 28 28 27 27 27 27 26 26 26 25 25 25 25 25 26 26 26 27 28 28 28 29 29 30 30 31 31 32 32 33 34 34 35 35 35 36 35 35 35 34 33 33 32 32 32 32
65 65 64 61 59 56 52 50 49 48 49 50 51 51 51 51 50 48 47 45 43 42 40 39 38 38 37 36 34 33 33 32 32 32 31 31 31 31 30 30 29 29 28 28 27 26 26 26 26 25 25 26 26 26 26 27 27 27 28 28 28 29 29 30 30 31 31 32 33 33 34 34 35 35 35 36 35 35 35 35 34 34 34 34 34 34
65 63 60 56 52 50 47 47 47 47 48 49 49 50 49 48 47 45 44 43 42 41 40 39 38 38 37 36 35 33 32 32 33 32 32 32 33 33 32 31 31 30 29 29 28 27 27 27 27 26 26 27 27 27 27 27 27 28 28 28 29 29 30 30 31 32 32 33 33 34 34 35 35 35 35 35 35 36 36 35 35 35 35 35 35 35
60 57 52 49 46 45 45 45 45 46 47 47 47 47 47 46 45 44 43 42 41 40 40 39 39 38 38 37 35 34 33 33 33 33 33 34 34 34 33 33 32 32 31 30 30 29 29 28 28 28 28 28 28 28 28 28 28 28 29 29 30 30 31 31 32 33 33 34 34 35 35 35 35 36 36 36 36 36 36 36 36 36 36 36 36 36
54 50 46 43 42 42 43 44 44 45 45 45 46 46 45 45 44 43 42 42 41 40 40 40 39 38 37 37 36 35 34 34 35 35 35 35 36 36 35 34 33 33 33 32 32 31 31 30 30 30 30 29 29 29 29 29 29 29 30 30 30 31 32 32 33 34 34 35 35 36 36 36 36 36 36 37 37 37 37 37 37 37 37 37 36 36
48 45 42 41 41 42 43 44 44 45 45 45 46 46 45 44 44 43 42 42 41 41 40 39 39 38 38 37 37 36 36 36 36 37 37 38 38 37 37 36 35 35 35 34 34 33 33 33 32 32 31 31 31 31 31 31 31 31 31 32 32 32 33 33 34 35 35 35 36 36 37 37 37 37 37 37 37 37 37 37 37 37 37 37 37 37
44 42 42 42 42 43 44 45 45 45 45 46 46 45 45 44 43 42 42 41 40 40 39 38 38 38 38 38 38 38 37 38 38 39 39 40 39 39 38 38 38 38 38 37 37 36 36 35 35 34 34 34 33 33 33 33 33 33 33 33 33 34 34 35 35 35 36 36 37 37 37 37 37 37 38 37 38 37 37 37 37 37 37 37 37 37
42 42 42 43 43 44 45 46 46 46 46 46 45 45 44 43 43 42 41 40 40 39 39 38 38 38 38 38 39 39 39 39 40 40 40 40 40 39 39 40 39 39 40 40 40 39 39 38 37 37 36 36 36 36 35 35 35 35 35 35 35 35 35 36 36 36 37 37 37 37 37 38 38 38 37 38 37 37 38 38 38 38 38 38 38 38
42 43 43 44 45 46 46 46 47 46 46 45 44 44 43 42 41 41 40 39 39 39 39 39 39 39 39 39 40 40 40 40 40 41 40 40 40 40 40 40 40 41 41 41 41 41 41 41 40 39 39 39 38 38 38 37 37 37 37 37 37 37 37 37 37 37 37 37 37 38 38 38 37 37 37 37 37 38 38 38 38 38 39 39 39 38
44 45 45 46 47 47 47 47 47 46 46 45 44 43 42 41 41 40 40 40 40 40 40 40 40 40 40 40 41 41 41 41 41 41 41 41 41 41 41 41 41 41 42 43 43 43 43 43 42 41 41 41 40 40 40 40 39 39 39 39 38 38 38 38 38 38 38 38 38 38 38 38 38 37 37 37 38 38 38 39 39 39 39 39 39 39
46 46 47 47 47 47 47 47 46 46 45 44 44 43 42 42 42 42 42 41 41 40 41 41 41 40 41 41 41 41 41 41 41 41 41 41 41 41 41 41 42 43 43 44 44 44 44 44 44 43 43 42 42 42 42 42 42 42 41 41 41 40 40 40 40 40 39 39 39 39 38 38 38 38 38 38 38 38 38 39 39 40 40 40 40 40
47 47 47 47 47 47 47 46 46 45 44 44 43 42 42 42 43 43 42 41 41 41 41 42 42 41 42 42 42 42 42 42 41 41 41 41 42 42 42 43 43 44 44 45 45 46 46 46 45 45 45 44 44 44 44 44 44 44 43 43 43 42 42 42 42 41 41 41 40 40 39 39 39 39 39 38 39 39 39 40 40 40 40 40 40 40
47 47 47 47 47 46 46 45 45 44 44 43 43 42 42 42 43 43 42 42 42 42 42 42 42 43 43 43 43 43 43 42 42 42 42 42 43 43 43 43 44 45 45 46 47 47 47 47 47 46 46 46 46 46 46 46 46 46 45 45 45 45 44 44 44 43 43 42 42 41 41 40 40 40 40 40 40 40 40 41 41 41 41 41 41 40
47 47 47 46 46 46 45 45 44 43 43 43 42 42 42 42 42 43 43 43 43 43 44 44 44 44 44 44 44 44 44 43 43 43 43 44 44 44 44 45 45 46 47 47 48 49 49 48 47 47 47 47 47 48 48 48 48 48 48 47 47 47 47 46 46 45 45 44 43 43 42 42 41 41 40 40 41 41 42 42 43 43 43 43 42 41
47 47 46 46 45 45 44 44 43 43 43 43 43 42 42 42 43 43 44 44 45 45 46 45 45 45 45 45 45 45 44 44 44 44 44 45 46 46 46 47 47 47 48 49 50 51 50 49 48 48 48 49 49 50 51 51 51 51 50 50 49 49 49 48 47 47 46 46 45 44 43 43 42 41 41 41 42 43 43 44 45 45 45 44 42 41
47 46 45 45 44 44 44 44 44 43 43 43 43 43 44 44 45 45 46 46 46 47 47 47 46 46 45 45 45 45 45 44 45 45 45 46 47 47 48 48 49 49 49 50 51 51 52 51 51 50 51 51 52 53 53 53 53 53 53 52 52 51 50 50 49 48 48 47 46 45 44 43 43 42 42 43 43 44 46 46 47 47 46 44 41 39
46 45 45 44 44 44 44 44 44 44 45 45 45 45 46 46 47 47 48 48 48 48 48 47 47 46 46 45 45 45 45 45 45 45 45 47 48 49 49 49 50 50 50 50 51 52 52 52 52 52 52 53 53 54 55 55 55 55 54 54 53 53 52 51 50 50 49 48 47 46 45 44 43 43 43 44 45 46 47 48 48 47 45 42 39 37
45 45 45 45 45 45 45 46 46 46 46 46 47 48 48 48 48 49 49 48 48 48 47 47 47 47 46 46 46 45 45 46 46 46 47 48 49 49 50 50 50 50 51 51 51 52 52 52 52 52 53 53 53 54 55 56 56 55 55 55 54 54 53 52 51 50 49 49 48 47 45 45 44 44 44 46 47 48 49 49 48 46 43 40 37 35
46 46 46 46 47 47 47 47 47 48 48 48 49 49 50 50 50 49 49 49 48 48 47 47 47 47 47 46 46 47 47 47 48 48 49 50 50 50 51 51 51 51 52 52 52 52 52 52 52 52 52 52 52 52 53 54 55 55 55 55 54 54 52 51 51 50 49 48 47 46 45 45 45 45 46 48 49 50 50 48 46 43 40 38 36 34
48 48 48 48 48 49 49 49 50 50 50 50 50 50 51 50 50 49 49 48 48 47 47 47 47 47 48 48 49 49 50 50 50 50 50 51 51 52 52 52 52 52 52 53 53 52 52 52 52 52 52 52 52 52 52 53 54 54 54 54 53 52 51 50 49 48 48 47 46 46 45 46 46 48 49 50 50 50 48 46 43 41 38 36 35 34
49 50 50 50 51 51 52 52 52 52 52 51 51 50 50 50 49 49 48 47 47 47 47 48 49 50 51 51 52 52 52 52 52 52 52 52 52 53 54 53 53 53 53 53 53 53 53 53 53 53 53 52 52 52 52 53 53 54 54 53 51 50 49 47 47 46 46 46 46 46 46 47 49 50 51 51 50 48 45 43 40 38 37 36 35 34
52 53 53 54 54 55 55 54 54 53 52 51 50 50 49 48 47 47 46 47 47 49 50 52 53 53 54 54 53 53 53 52 52 52 52 52 53 53 54 54 54 54 54 54 54 54 54 54 54 53 53 52 52 51 51 51 52 53 54 53 51 50 48 47 46 46 46 46 47 48 49 50 51 51 51 49 47 44 42 39 38 37 36 35 35 34
56 57 57 57 56 56 55 53 52 51 50 49 49 47 47 46 46 46 46 48 50 52 54 56 56 56 55 55 54 53 53 52 52 52 52 53 53 54 55 56 55 55 54 54 54 54 54 54 54 54 53 53 52 51 50 51 52 53 54 53 52 51 49 47 47 47 47 48 49 50 51 52 51 50 48 46 43 40 38 37 36 36 35 35 34 34
59 59 59 57 55 54 52 51 50 49 48 47 46 45 44 45 46 48 50 53 55 57 57 57 57 56 55 55 54 53 53 52 52 52 53 54 54 55 56 57 57 56 55 55 54 53 53 53 53 53 53 53 53 53 52 52 52 53 53 52 52 51 50 49 48 48 49 50 51 52 52 51 49 46 44 41 39 37 36 36 36 36 35 35 35 34
60 58 56 54 52 50 49 48 47 46 45 44 44 44 45 48 51 54 56 58 59 59 58 57 57 56 56 55 54 53 53 52 52 53 54 54 55 56 57 57 56 56 55 54 53 52 52 52 52 52 52 52 53 53 53 53 53 53 52 51 51 52 52 51 50 50 51 51 52 51 49 47 44 41 39 37 36 36 36 36 36 36 36 35 35 35
56 54 51 50 48 47 45 45 44 44 43 43 45 47 51 55 58 60 61 60 59 59 57 57 56 56 56 55 54 54 53 53 53 53 54 54 55 56 56 55 55 54 54 53 52 52 51 51 51 52 52 53 53 54 54 53 53 52 52 51 52 54 55 54 53 52 51 51 49 48 45 42 40 37 36 36 36 37 37 37 37 37 37 36 36 35
51 49 48 46 45 44 44 43 43 43 44 47 50 54 58 60 61 61 60 59 58 58 57 57 56 56 55 55 54 54 53 53 53 53 53 53 54 54 54 54 54 53 53 53 52 52 51 51 52 52 52 53 54 56 56 54 53 52 52 53 54 55 57 57 56 53 51 48 46 44 41 39 37 36 35 36 37 38 39 38 38 37 37 36 36 35
47 46 45 44 44 44 43 44 46 47 50 54 57 60 62 61 60 60 60 59 58 57 57 57 56 56 56 55 54 53 53 53 52 52 52 53 53 53 54 54 54 54 54 54 54 53 53 53 53 53 54 55 56 57 57 55 53 52 52 53 54 56 58 59 58 55 51 48 45 42 39 37 36 36 37 38 39 39 39 39 38 38 37 36 36 36
46 45 45 45 45 46 47 49 51 55 58 60 62 62 62 61 60 60 59 59 58 58 57 57 57 56 56 55 54 53 53 53 53 53 53 53 53 54 54 55 55 55 55 55 55 55 55 55 55 56 56 57 58 58 58 56 54 52 51 52 55 57 59 60 59 57 53 49 45 42 40 38 37 37 38 39 40 41 40 40 39 38 37 37 36 36
46 46 46 47 48 50 52 55 58 60 62 62 62 61 61 60 60 59 59 58 58 57 57 56 56 57 56 55 55 54 53 53 53 53 54 54 54 55 55 55 55 56 56 56 56 57 57 58 58 59 59 60 59 59 58 56 54 52 51 52 54 57 59 60 61 59 56 52 48 45 42 40 39 39 40 41 42 41 41 40 39 39 38 37 37 37
48 48 49 51 52 55 58 60 62 62 62 61 61 60 60 60 59 59 58 58 57 57 57 56 56 56 56 56 55 55 54 54 54 53 54 54 54 55 55 55 55 55 56 56 57 57 58 59 60 61 62 62 61 60 59 57 55 53 52 53 55 57 59 60 60 59 57 54 50 47 45 43 42 42 42 42 43 42 42 41 40 39 39 38 37 37
52 53 54 56 58 60 61 62 62 61 61 60 60 59 59 59 58 58 58 58 57 57 57 57 58 57 57 57 57 56 56 55 55 54 53 53 53 54 55 55 55 55 54 54 55 56 57 58 59 61 62 62 62 61 59 57 55 54 54 54 55 56 58 59 59 59 57 55 52 50 48 47 46 45 45 44 44 43 42 42 41 40 39 38 38 38
58 59 60 61 62 62 62 61 61 60 60 59 59 58 58 58 59 59 59 58 58 59 59 59 60 59 59 59 58 58 57 57 56 55 54 53 53 54 54 54 54 54 53 53 52 53 53 55 56 57 59 60 60 59 58 56 55 55 54 54 55 55 56 57 58 58 57 56 54 53 52 50 49 48 47 46 45 44 43 42 42 41 40 39 39 39
63 64 64 63 63 62 62 61 60 60 60 59 59 59 59 59 59 59 59 60 60 60 61 61 61 61 60 60 59 59 58 57 57 56 55 54 54 54 55 54 53 53 51 50 50 50 50 51 52 53 54 55 55 55 54 54 53 53 53 53 53 54 54 55 56 57 56 55 55 54 53 52 51 50 49 47 46 45 43 42 42 41 41 40 40 40
65 64 64 63 63 63 62 62 61 61 60 60 59 59 59 59 60 60 60 61 61 61 62 61 61 61 61 60 60 59 58 58 57 57 55 55 55 54 54 53 52 51 49 48 48 48 48 50 51 52 51 50 50 50 51 51 51 51 50 50 50 50 50 51 52 53 53 53 52 52 51 50 50 49 48 46 45 45 44 43 42 42 42 41 41 41